sat.trackr.live / text

‹ back to catalog

STARLINK-32559

NORAD 61915 · 2024-207D

PAYLOAD ACTIVE UNKNOWN

§ Identity

Operator
Country
US
Launch date
2024-11-11
Launch site
AFETR
Launch vehicle
Mass (kg)
RCS (m²)

Purposes: comms

External: N2YO · Heavens-Above · Gunter

§ Orbital elements

Epoch: 2026-05-24T15:52:08.226912Z

Period
94.27 min
Inclination
42.9994°
Eccentricity
0.0001875
Mean motion
15.27580086 rev/d
Perigee alt
481.8 km
Apogee alt
484.3 km
Semi-major
6,861.2 km
B*
3.2480e-4
RAAN
212.4630°
Arg perigee
276.4445°
Mean anomaly
83.6193°
Rev number
8,634

§ Raw data

STARLINK-325591 61915U 24207D   26144.66120633  .00008686  00000+0  32480-3 0  99982 61915  42.9994 212.4630 0001875 276.4445  83.6193 15.27580086 86345

JSON: /api/v1/satellites/61915 · /tle

For live sub-satellite position, see the globe view (requires WebGL).

§ Visibility from observer

Set your observer location to see the next 7 days of passes ≥ 10°. The values pass through the URL so the page stays shareable.

No JS? Fill the form by hand. The geolocation button needs JavaScript.